Погода Алуксне

Погода Алуксне : погода сейчас, прогноз погоды и архив. Всё, что Вы хотите узнать о погоде Алуксне!

Поиск расширенной информации на нашем сайте:

Другие новости

Новости СМИ2

Главная страница сайта

Новости сайта

02.10.2013

Напоминаем, что на нашем новом сайте вы можете получить высокодетализированные прогнозы погоды по пунктам России, СНГ и мира (включающие важные для авиации метеовеличины, такие как направление и скорость ветра, видимость, явления погоды, количество и форма облачности, нижняя и верхняя граница облачности), а также ознакомиться с разнообразными материалами по авиационной метеорологии и подборкой полезных ссылок на эту тему.

Сайт Метеоцентр.Азия посвящён разработке технологий оптимизации авиаметеорологического обслуживания, включая проектирование и перспективное создание нескольких автоматизированных авиаметеорологических систем:
- система выпуска высокодетальных прогностических карт явлений погоды для нижнего воздушного пространства по России и ближнему зарубежью;
- система верификации прогнозов TAF (выпускаемых синоптиками официальных АМСГ РФ и ближнего зарубежья) и AUTOTAF (выпускаемых сайтом Метеоцентр.Азия) - выявление ошибок, онлайн-сопоставление с фактической погодой METAR, автоматическое внесение коррективов в прогнозы при резком отклонении фактической погоды от прогноза, подсчёт оправдываемости прогнозов по элементам и в целом;
- система обработки, анализа и отображения авиаметеорологической информации для применения провайдерами метеорологической информации.

Рекомендуем: Прикольный подарок - Авто номера - автомобильные номера имена

Погода Алуксне - сегодня

Время (UTC), дата Ветер
(°,м/с) 
Видим.   Явления Облачность Т
(°С)
Тd
(°С)
f(%) Тe
(°С)
Pmin
(гПа)
dP
(гПа)
Po
(мм)
O2
(г/м3)
Тmin Tmax R s Состояние
почвы
18 18.01.17 230 (ЮЗ) 10 км  {ливн. осадки} [диам. сложн. отлож. 1 мм]  10/10 300 м 
[St]
-2.7 -2.9 99 -5  1030.8  -1.3  754  306    -2.7  0.0     
21 18.01.17 220 (ЮЗ) 10 км  [диам. сложн. отлож. 1 мм]  10/10 300 м 
[St]
-2.3 -2.4 99 -4  1028.8  -1.9  753  306           
00 19.01.17 230 (ЮЗ) 10 км  [диам. сложн. отлож. 1 мм]  10/10 300 м 
[St]
-1.3 -1.4 99 -3  1026.8  -1.9  751  304           
03 19.01.17 250 (З) 10 км  [диам. сложн. отлож. 0 мм]  10/10 300 м 
[St]
-0.8 -0.9 99 -3  1025.1  -1.6  750  302           
06 19.01.17 240 (ЮЗ) 10 км  [диам. сложн. отлож. 0 мм]  10/10 300 м 
[St]
-0.5 -0.6 99 -2  1023.7  -1.3  749  302  -2.6      15  равномерный
сухой снег
100% 
09 19.01.17 260 (З) 4000 м  слаб. морось [диам. гололёда 0 мм]  10/10 200 м 
[St]
+0.2 +0.1 99 -2  1023  -0.6  749  301           
12 19.01.17 260 (З) 10 км  {морось} [диам. гололёда 0 мм]  10/10 300 м 
[St]
+0.6 +0.5 99 -1  1021.7  -1.3  748  300           
15 19.01.17 260 (З) 10 км  {морось}  10/10 300 м 
[St]
+0.6 +0.5 99 -1  1020.6  -1.1  747  299           
18 19.01.17 260 (З) 4000 м  слаб. морось  10/10 200 м 
[St]
+0.9 +0.8 99 -1  1018.8  -1.7  746  299    +0.9     
21 19.01.17 290 (З) 6{12}  10 км  {морось}  10/10 200 м 
[St]
+1.6 +1.5 99 -2  1018.7  746  298           
00 20.01.17 310 (СЗ) 5{12}  10 км  {морось}  10/10 300 м 
[St]
+1.5 +1.3 99 -1  1019.2  0.5  746  299           
03 20.01.17 300 (СЗ) 10 км    10/10 300 м 
[St]
+0.8 +0.3 96 -2  1020.4  1.1  747  299           
06 20.01.17 300 (СЗ) 10 км    8/8 300 м 
[St]
-0.6 -1.2 96 -2  1021.5  0.9  748  301  -0.6    0.0  равномерный
мокрый или
старый снег
100% 
09 20.01.17 300 (СЗ) 10 км    3/0 верхняя 
[Ci fib]
-0.5 -1.9 90 -2  1022.1  0.6  748  301           
12 20.01.17 280 (З) 10 км    10/0 средняя 
[Ac lent]
+0.5 -1.5 86 -1  1020.5  -1.5  747  300           
15 20.01.17 220 (ЮЗ) 10 км    10/0 средняя 
[Ac lent]
+0.2 -0.9 92 -1  1018  -2.4  745  299           
18 20.01.17 260 (З) 10 км    10/10 200 м 
[St]
+0.5 +0.4 99 -1  1015.5  -2.4  743  298    +0.5  0.0     
21 20.01.17 300 (СЗ) 6{10}  10 км  {морось}  10/10 200 м 
[St]
+1.4 +1.3 99 -2  1015.7  0.2  744  297           
00 21.01.17 320 (СЗ) 5{10}  10 км  {морось}  10/10 200 м 
[St]
+0.9 +0.8 99 -2  1016.9  1.2  744  299           
03 21.01.17 340 (С) 3{10}  10 км  {ливн. осадки}  10/10 200 м 
[St]
-0.1 -0.4 98 -2  1018.7  1.6  746  300           
06 21.01.17 310 (СЗ) 4{10}  10 км  {ливн. осадки}  4/4 300 м 
[St]
-1.5 -2.3 94 -4  1019.8  747  302  -1.5    0.3  равномерный
сухой снег
100% 
09 21.01.17 310 (СЗ) 10 км    8/8 1000 м 
[Cu hum]
-1.3 -2.3 93 -5  1022.1  2.2  748  302           
12 21.01.17 310 (СЗ) 5{10}  10 км    8/8 1000 м 
[Cu hum]
-1.1 -2.7 89 -4  1023.4  1.3  749  303           
15 21.01.17 320 (СЗ) 10 км    9/9 300 м 
[St]
-0.9 -2.1 92 -3  1024.9  1.5  750  303           
18 21.01.17 310 (СЗ) 10 км    10/10 300 м 
[St]
-1.5 -1.8 98 -3  1026.1  1.1  751  304    -0.7       
Время (UTC), дата Ветер
(°,м/с) 
Видим.   Явления Облачность Т
(°С)
Тd
(°С)
f(%) Тe
(°С)
Pmin
(гПа)
dP
(гПа)
Po
(мм)
O2
(г/м3)
Тmin Tmax R s Состояние
почвы

Для получения пояснительной информации подведите курсор к названию столбца.

ПОГОДА Алуксне - архив

Всё, что Вы хотите узнать о погоде Алуксне - удобно и подробно!

Выберите нужную дату (начиная с 1 января 2015* года) и нажмите кнопку "Найти".
Будут отображены архивные сводки погоды по пункту Алуксне, начиная с указанной даты.


Отображать данные в формате CSV (для использования в таблицах Excel)


Внимание! Наш архив погоды предназначен исключительно для личного некоммерческого использования в познавательных целях. Если Вам необходимы официальные справки о состоянии погоды (для производственных, юридических, коммерческих и т.п. целей), обращайтесь в органы Росгидромета.

*Примечание: данная дата относится к архиву по метеостанциям СССР (Россия, СНГ, Балтия).
Архив по метеостанциям Зарубежной Европы и Азии (кроме Китая) хранится 10 дней, по другим регионам земного шара (Китай, Африка, Америка, Австралия, Океания) - 1 день.

Алуксне - район местоположения метеостанции


Название, широта, долгота, высота метеостанции:
Алуксне 57.4°ш. 27°д. 193 м над ур. моря [Латвия]

Дополнительная информация

В oтличие oт бoльшинства пoгoдных сайтoв мы публикуем пoдрoбную метеoинфoрмацию в детальнoм прoфессиoнальнoм фoрмате.

Характеристики температуры и влажнoсти вoздуха измеряются на высoте 2 м в тени вдали oт зданий и деревьев.
Скoрoсть ветра измеряется на высoте 10 м (на урoвне рoста челoвека скoрoсть ветра ниже в 1.5-2 раза). Если метеoстанция нахoдится в гoрoде или в лесу, тo скoрoсть ветра занижена на 2-4 м/с пo сравнению с oткрытым местoм. Скoрoсть ветра над акватoриями крупных рек и oзёр, а также на вершинах хoлмoв на 2-5 м/с выше, чем в oбычных услoвиях.
Атмoсфернoе давление в разных тoчках местнoсти мoжет значительнo oтличаться oт давления на метеoстанции, в зависимoсти oт услoвий рельефа (при пoдъёме на 10 м давление пoнижается примернo на 1 мм рт.ст.).